GFSFLT2_850_temp_171.txt.gz
Temp
13 13 14 14 15 16 16 17 16 16 16 16 16 16 16 15 15 16 16 15 15 15 15 14 14 14 14 15 15 15 15 15
13 13 14 14 15 16 16 16 16 16 16 16 16 15 15 15 15 15 16 15 15 15 16 16 15 15 14 14 15 15 14 14
13 13 14 14 15 16 16 15 15 15 16 15 15 15 15 15 15 15 15 15 15 15 15 16 15 15 15 15 15 14 14 15
13 13 14 14 14 14 14 15 15 15 15 15 15 15 15 15 15 15 15 15 14 15 15 15 15 15 15 15 15 15 15 15
12 13 13 13 13 14 14 15 15 15 15 15 15 14 14 14 14 14 14 14 14 14 14 14 14 14 15 15 15 15 15 15
12 12 12 12 12 13 13 14 14 14 14 14 14 14 14 14 14 14 14 13 14 14 13 14 14 14 14 14 14 14 15 15
12 12 12 13 13 13 13 13 13 13 13 13 12 12 12 13 13 13 13 13 13 13 13 13 13 13 13 13 14 14 14 14
12 12 12 12 12 12 12 12 12 12 12 12 12 12 12 12 12 12 12 12 12 12 12 12 12 13 13 13 13 13 14 14
11 11 11 11 11 11 11 11 11 10 11 11 11 11 11 11 11 11 11 11 10 10 11 11 11 11 11 12 12 12 12 12
11 10 10 10 10 10 10 10 10 10 10 10 10 10 10 10 10 10 10 10 10 10 9 9 9 9 9 10 10 10 10 11
10 10 10 9 9 9 9 9 9 9 9 9 9 9 9 9 9 9 9 9 9 9 8 7 7 7 7 7 8 8 8 8
9 9 9 9 8 8 8 8 8 8 8 8 8 8 8 8 8 8 8 8 8 8 7 6 4 4 5 5 6 4 5 4
9 9 8 7 7 7 7 7 7 7 7 7 7 7 7 7 7 7 7 8 7 7 7 7 4 2 2 3 3 2 3 2
7 7 7 7 6 6 6 6 7 7 7 6 6 6 7 7 6 6 6 6 6 6 6 6 4 1 -1 -1 -0 2 2 3
6 6 6 6 6 6 6 6 6 6 6 6 6 6 6 6 6 5 5 5 5 5 4 3 3 0 -2 -3 -3 -2 -2 1
6 5 5 5 5 5 6 6 5 5 5 5 5 5 5 5 5 4 4 4 3 3 3 2 1 0 0 -1 -4 -4 -3 -3
5 5 5 5 4 4 4 5 5 4 4 4 4 4 4 4 3 3 3 3 2 2 2 2 1 -0 -1 -2 -3 -3 -4 -4
5 5 5 4 4 4 4 4 4 4 4 3 3 2 3 3 2 2 2 2 2 1 1 1 0 -1 -2 -3 -5 -6 -6 -6
4 3 3 3 3 3 4 3 3 3 3 3 2 2 2 2 2 1 1 1 1 0 0 -0 -1 -1 -2 -3 -4 -5 -6 -6
3 2 2 3 3 3 2 2 2 2 2 1 1 1 1 1 1 0 1 1 0 -0 0 -0 -1 -1 -2 -3 -4 -4 -5 -6

GFSFLT2_850_temp_174.txt.gz
Temp
13 13 13 14 14 14 15 15 16 16 16 16 16 16 16 16 16 16 16 16 16 16 16 16 16 15 14 14 14 14 15 13
13 12 12 13 14 14 15 15 15 15 15 15 16 16 15 16 15 16 16 16 16 16 16 16 15 15 16 15 15 15 14 14
12 12 13 13 14 15 15 15 15 15 15 15 15 15 15 15 15 15 15 15 15 15 15 16 15 15 15 15 15 14 12 13
12 12 12 12 13 14 15 15 15 15 15 15 15 15 15 15 15 15 15 15 15 14 14 14 15 15 14 15 15 15 15 14
11 12 12 12 13 13 14 14 14 14 14 14 14 14 14 14 14 14 14 14 14 14 14 14 14 14 14 14 14 15 15 14
12 12 12 12 12 13 13 13 13 13 13 13 13 13 13 13 13 13 13 13 13 13 13 14 14 13 13 13 13 13 14 14
12 12 12 12 12 12 12 12 12 12 12 13 12 12 12 12 12 12 12 12 13 13 13 13 13 13 13 13 13 13 13 13
11 11 11 11 11 11 11 11 11 11 12 12 12 12 12 12 11 11 11 12 12 12 11 11 11 12 11 12 12 12 12 12
11 11 11 11 11 11 11 11 11 11 11 11 11 11 11 11 10 10 10 10 10 10 10 10 9 9 9 9 10 9 9 9
11 10 10 10 10 10 10 10 10 10 10 10 10 10 10 9 10 10 10 9 9 9 9 9 9 7 8 8 6 6 5 5
9 10 10 10 9 9 9 9 9 9 9 9 9 9 9 9 9 9 9 9 9 9 8 7 6 7 8 5 3 4 4 4
10 10 10 9 9 9 9 8 8 8 8 8 8 8 8 8 8 8 8 8 8 8 8 6 4 6 7 3 3 4 4 3
9 9 9 8 7 7 7 7 7 7 8 8 7 7 7 7 7 7 7 7 7 7 7 6 3 6 4 4 4 4 3 3
8 8 8 7 6 7 6 6 7 7 7 7 7 7 7 7 7 7 7 6 6 6 6 5 2 1 0 1 3 5 3 3
8 8 7 7 7 6 6 6 5 5 6 6 6 6 6 6 6 6 5 5 5 5 4 4 1 0 -1 -1 0 1 -2 2
6 6 6 6 6 6 6 3 2 5 5 5 5 5 5 5 5 4 4 4 3 3 3 2 2 -2 -2 -3 -4 -4 -4 -3
6 6 6 6 6 6 5 4 5 4 5 4 4 4 3 4 4 4 4 3 3 2 2 1 0 -2 -4 -5 -4 -3 -3 -4
5 5 5 5 5 5 4 4 3 4 3 2 2 3 3 3 3 3 3 3 2 2 0 -1 0 -2 -3 -5 -6 -5 -6 -5
5 4 4 4 4 4 3 3 3 3 1 1 1 2 2 2 3 2 2 2 1 0 -1 -2 -0 -1 -2 -3 -5 -6 -7 -7
4 4 4 3 3 3 3 2 2 2 2 1 1 2 2 2 2 1 0 0 0 -1 -1 -1 -3 -4 -3 -4 -5 -4 -4 -6

GFSFLT2_850_temp_177.txt.gz
Temp
12 13 13 13 13 13 13 14 14 15 15 15 16 16 16 16 16 16 16 16 16 16 16 16 16 16 15 15 15 15 15 15
12 12 12 12 12 13 13 14 15 15 15 15 15 15 15 15 16 16 16 16 16 16 16 16 16 15 15 15 15 15 15 15
12 12 11 12 12 12 13 14 14 15 14 14 14 14 14 15 15 15 15 15 15 15 15 15 15 15 15 16 15 15 14 15
11 11 12 10 9 12 13 13 14 14 14 14 14 14 14 14 15 15 15 14 14 15 15 14 14 14 14 14 12 13 14 13
11 11 9 9 9 9 9 9 12 13 14 14 14 13 13 13 13 14 14 14 14 14 14 14 14 14 14 14 14 14 12 12
11 10 10 8 9 9 8 9 11 12 13 13 13 12 13 13 13 12 12 13 13 13 12 13 13 13 13 13 13 13 11 10
8 8 10 11 9 10 11 11 12 12 12 12 12 12 12 12 12 11 12 12 12 12 12 12 12 11 11 11 11 12 12 11
8 9 11 11 11 12 11 11 10 10 11 11 11 11 11 11 11 11 11 11 11 11 11 11 10 9 8 9 10 8 8 8
10 11 11 11 11 10 9 9 8 8 9 10 10 11 11 10 11 11 10 10 10 10 10 9 8 8 7 8 7 6 6 6
9 9 10 9 9 7 7 9 8 8 9 10 10 10 10 10 9 10 10 9 9 8 8 9 7 7 9 8 6 6 6 6
9 10 10 10 9 9 9 9 8 9 9 10 10 10 9 9 9 9 8 7 7 8 8 7 5 7 8 5 5 6 6 6
7 7 9 8 7 7 7 8 7 7 8 9 9 9 8 8 8 8 7 6 6 7 7 6 4 6 7 5 5 6 4 4
6 8 9 6 6 6 6 5 4 5 8 8 8 8 8 8 7 7 6 4 5 6 6 4 3 4 4 5 7 5 4 4
6 6 6 6 6 6 5 4 6 7 7 7 7 7 7 7 6 5 6 3 4 5 5 4 2 3 2 4 6 7 7 4
6 6 5 5 6 7 7 7 7 4 3 3 6 7 7 6 6 6 5 4 3 4 4 3 2 1 -0 -0 2 3 -1 3
5 4 4 6 5 5 4 6 5 3 3 5 6 6 6 5 5 5 5 4 4 3 3 2 2 -1 -1 -2 -2 -2 -2 -2
4 4 5 7 6 5 4 4 3 2 4 4 4 4 4 4 4 4 3 2 2 2 -1 -0 -2 -2 -3 -3 -3 -2 -3 -4
4 5 6 6 6 5 4 5 4 2 2 0 0 0 2 3 2 1 2 1 1 -2 -3 -2 -2 -2 -2 -4 -5 -5 -5 -6
3 3 4 5 5 5 4 4 3 3 1 0 -0 -1 -2 1 0 0 0 1 -0 -2 -2 -2 -3 -3 -4 -4 -5 -5 -6 -6
3 3 2 3 4 3 3 3 1 0 -0 -1 -1 -2 -1 -0 -0 1 1 0 -1 -2 -3 -3 -4 -4 -4 -5 -5 -4 -4 -6

GFSFLT2_850_temp_183.txt.gz
Temp
14 13 15 15 15 15 15 15 15 15 16 15 16 17 15 16 15 16 16 16 16 16 16 16 16 16 16 16 15 15 15 16
14 13 14 14 14 13 13 14 14 15 14 14 15 17 16 16 15 15 15 15 16 16 15 16 16 16 16 16 15 15 15 15
13 13 13 13 13 13 13 14 14 13 14 15 15 16 16 15 15 15 15 15 15 15 15 15 15 15 15 15 15 15 14 13
13 13 13 13 13 13 13 14 14 14 15 15 15 16 15 14 15 15 15 14 14 14 15 15 15 15 15 15 14 14 14 13
13 12 12 12 12 12 12 13 13 13 14 14 15 14 14 13 14 14 14 14 14 14 14 14 14 14 14 14 14 14 14 13
11 11 12 12 11 12 12 12 13 13 13 13 13 13 12 12 13 13 13 13 13 13 13 13 13 13 13 14 13 13 12 12
11 11 10 10 10 9 10 11 13 13 12 13 13 12 12 12 12 12 12 12 12 12 12 12 12 12 12 12 12 12 11 9
10 10 9 10 10 10 10 11 12 12 12 12 12 11 12 11 11 11 11 12 12 12 12 12 12 12 11 11 11 9 7 6
10 10 9 10 10 10 10 10 10 11 11 11 11 11 11 11 10 11 11 11 11 11 11 11 11 11 10 10 8 6 6 6
8 9 9 9 9 9 9 9 10 10 10 10 10 10 11 10 10 10 11 11 10 10 10 10 11 10 10 8 6 6 6 6
8 8 8 8 8 8 8 8 9 9 9 9 9 10 10 10 9 9 10 10 10 10 10 10 10 10 9 6 6 6 6 5
8 7 7 7 7 7 6 6 8 8 9 9 9 9 9 9 9 9 9 9 9 9 9 9 9 9 8 6 5 5 5 4
8 7 7 7 7 7 7 8 8 8 8 9 8 8 8 9 9 8 9 9 9 9 9 9 9 9 6 5 4 5 4 3
8 8 7 7 7 7 7 7 7 7 7 7 7 8 8 8 8 8 9 8 8 8 8 8 8 8 7 5 4 4 3 2
9 8 7 6 6 5 5 5 5 5 6 6 7 7 7 8 8 8 7 7 8 7 7 6 6 6 6 6 4 3 2 1
8 7 6 6 7 7 7 7 5 5 6 6 7 7 7 7 7 7 7 6 6 6 6 5 5 5 4 4 3 2 2 2
7 6 6 6 7 6 6 5 5 5 5 5 6 6 6 6 6 6 6 6 5 5 4 4 4 3 3 2 2 1 1 -1
7 6 6 6 5 5 5 5 5 5 5 5 6 5 6 6 6 5 5 5 4 3 2 2 2 2 2 2 2 2 -0 -2
7 6 6 5 5 5 5 5 5 5 5 4 5 6 5 5 5 5 4 3 3 2 1 1 1 2 1 1 1 1 0 -2
7 6 5 5 4 4 4 5 5 4 4 4 5 5 5 4 4 4 3 2 2 1 1 0 0 -0 0 -0 -0 -1 -1 -3